Location: Unspecified
(0.0000°N, 0.0000°E)
Time: 18:00:19
(UTC+02:00)

CZ-4B DEB - Visible Passes

Search period start: 16 April 2014 00:00
Search period end: 26 April 2014 00:00
Orbit: 529 x 548 km, 97.5° (Epoch: 15 April)

Date Brightness Start Highest point End Pass type
(mag) Time Alt. Az. Time Alt. Az. Time Alt. Az.
16 Apr 4.2 20:16:28 10° SE 20:19:51 28° E 20:23:11 10° NNE visible
17 Apr 6.5 21:44:52 10° WSW 21:46:12 12° WSW 21:47:32 10° W visible
18 Apr 6.3 21:36:02 10° SW 21:38:20 15° WSW 21:40:37 10° WNW visible
19 Apr 5.9 21:27:33 10° SSW 21:30:25 20° WSW 21:33:17 10° NW visible
20 Apr 5.5 21:19:13 10° SSW 21:22:29 26° WSW 21:25:44 10° NW visible
21 Apr 4.9 21:10:58 10° SSW 21:14:32 34° WSW 21:18:03 10° NW visible
22 Apr 4.3 21:02:48 10° S 21:06:32 46° WSW 21:10:14 10° NNW visible
23 Apr 3.7 20:54:40 10° S 20:58:31 64° WSW 21:02:19 10° NNW visible
24 Apr 3.2 20:46:35 10° S 20:50:28 88° W 20:54:18 10° NNW visible
25 Apr 3.2 20:38:32 10° SSE 20:42:23 67° E 20:46:11 10° N visible
